HISPASAT 30W-6 (43228 NORAD) Tracking and Keplerian Element Data

This shows tracking and keplerian element data for the satellite.

Feedback or suggestion? Click here.




ElementValue
Catalog43228
NameHISPASAT 30W-6
Epoch Orbit397
Epoch Day80.39910653
Epoch Year2019
RAAN42.2354
Inclination0.0502
Eccentricity0.0005833
Argument of Perigee335.6382
Mean Anonmoly274.3805
Mean Motion1.00271759
Decay Rate-2.42E-06
L11 43228U 18023A 19080.39910653 -.00000242 00000-0 00000+0 0 9995
L22 43228 0.0502 42.2354 0005833 335.6382 274.3805 1.00271759 3977

Live tracking and technical data element details for HISPASAT 30W-6 (NORAD 43228). HISPASAT 30W-6 can be tracked NOW for your location showing map with azimuth and elevation plus other details from your city location.

Track the satellite on the map from your city or location and see movement details for azimuth, elevation, latitude, longitude, range, height, and movement on the map or in text.







IsCatalogInMostPopularTable: catalog: 43228, numindb: 277
Update: records affected: 1



GetName: 43228 HISPASAT 30W-6

Hit Count: updated at: Sat, 23 Mar 2019 02:53:44 GMT